NOAA 16 DEB, 41212

Orbit data source: Space-Track

NOAA 16 DEB, 41212 is space debris in SSO originally from a launch on Thu, 21 Sep 2000 UTC launched from the Air Force Western Test Range (AFWTR). Debris objects in space refer to the collection of defunct objects orbiting the Earth. Examples of debris include non-operational satellites, rocket bodies, and fragments generated from explosions, collisions, or faulty payload assembly.

Loading next visibility...
Identifier
41212, 2000-055DR
Orbit
SSO
Country
Flag of USUS
Related business
Manufacturer
Unknown
Mission
Spacecraft
Bus & Motor
Unknown
Mass
Unknown
Launch date (UTC)
2000-09-21 (26 years ago)
Launch vehicle
Unknown
Launch site
Air Force Western Test Range (AFWTR)
Object type
Payload
Rocket body
Debris
Shape & HBR
Unknown shape, 0.1 m
Radar Cross Section
Medium (>0.1 m² and <1 m²)

Expand to show TLE details & history
Last TLE update: 2 days ago

TLE from 2 days ago
0 NOAA 16 DEB
1 41212U 00055DR  26252.66831991  .00003147  00000-0  10294-2 0  9993
2 41212  98.9526  45.8245 0014991  63.8981 296.3746 14.39191830557360
Epoch: 2026-09-09T16:02Z
TLE epoch observation values (Epoch: 2026-09-09T16:02:22.840Z)
Latitude
-0.00001°
Longitude
176.51226°
Altitude
759.36 km
Speed
7.477 km/s
True Right ascension
03h 03m 17s
True Declination
0° 00' 00"
Sunlit
Object was in full shadow at epoch
Visualization orbit readout
Latitude
Unknown
Longitude
Unknown
Altitude
Unknown
Speed
Unknown
Apparent Right ascension
Unknown
Apparent Declination
Unknown
Sunlit
N/A
Visualization observer readout
Local Sidereal Time
11:27:18
Azimuth
Unknown
Elevation
Unknown
Doppler factor
Unknown
Orbital elements
Apogee altitude
769.013 km
Perigee altitude
747.617 km
Semi-major axis
7,136.452 km
Eccentricity
0.0015
Inclination
98.9526°
RAAN
45.8245°
Arg. of periapsis
63.8981°
True anomaly
296.22057°
Mean anomaly
296.3746°
Eccentric anomaly
296.2976°
Mean motion
3.60014 °/min
Orbital period
100 mins
BSTAR
0.0010294
Loading maneuver chart data...
Computing Atmospheric mass density...
Loading historical data...
Loading historical data...
Loading historical data...
Loading historical data...
Loading historical data...
Loading historical data...
Loading historical data...

Documentation

Showing up to 5 results
|